Location: ?????????
(54.7630°N, 39.4991°E)
Time: 05:34:11
(UTC+00:00)

Cosmos 2360 Rocket - Pass Details

Date: 14 April 2026
Orbit: 831 x 845 km, 71.0° (Epoch: 10 May)

Event Time Altitude Azimuth Distance (km) Brightness Sun altitude
Rises 23:10:12 0° 324° (NW) 3,410 5.7 -21.7°
Reaches altitude 10° 23:12:57 10° 335° (NNW) 2,475 5.1 -21.5°
Maximum altitude 23:17:58 31° 36° (NE) 1,453 4.1 -21.1°
Drops below altitude 10° 23:22:58 10° 98° (E) 2,470 4.9 -20.7°
Sets 23:25:42 0° 109° (ESE) 3,403 5.5 -20.5°
